CST,Max TemperatureF,Mean TemperatureF,Min TemperatureF,Max Dew PointF,MeanDew PointF,Min DewpointF,Max Humidity, Mean Humidity, Min Humidity, Max Sea Level PressureIn, Mean Sea Level PressureIn, Min Sea Level PressureIn, Max VisibilityMiles, Mean VisibilityMiles, Min VisibilityMiles, Max Wind SpeedMPH, Mean Wind SpeedMPH, Max Gust SpeedMPH,PrecipitationIn, CloudCover, Events, WindDirDegrees
2013-1-1,37,30,23,37,32,23,100,100,93,30.30,30.20,30.06,10,6,1,9,4,,0.00,7,Snow,358
2013-1-2,37,28,19,30,24,19,100,88,60,30.31,30.27,30.20,10,8,4,7,1,,0.00,0,,236
2013-1-3,42,30,19,34,27,19,100,83,53,30.46,30.40,30.28,10,8,3,10,1,,0.00,3,,318
2013-1-4,50,36,21,32,26,21,100,73,35,30.48,30.41,30.33,10,9,4,12,2,16,0.00,0,,207
2013-1-5,44,36,28,36,31,27,100,77,61,30.33,30.26,30.18,10,10,10,15,4,22,0.00,5,,203
2013-1-6,44,34,23,34,26,23,100,74,43,30.41,30.35,30.26,10,10,5,9,3,,0.00,0,,306
2013-1-7,53,37,21,32,27,21,100,72,38,30.37,30.25,30.13,10,9,5,14,3,20,0.00,0,,171
2013-1-8,59,44,28,48,35,27,100,73,41,30.22,30.12,30.06,10,8,1,13,4,18,0.00,4,Rain,173
2013-1-9,55,50,44,50,43,34,100,78,44,30.36,30.28,30.22,10,7,1,20,4,32,0.00,4,Rain,62
2013-1-10,59,54,48,59,50,37,100,90,54,30.21,29.95,29.81,10,9,2,15,10,24,0.00,7,Rain,130
2013-1-11,68,58,48,52,46,43,100,68,40,29.89,29.80,29.71,10,10,10,22,11,29,0.00,1,,183
2013-1-12,60,45,28,48,34,27,100,76,41,30.03,29.93,29.80,10,9,2,15,9,23,0.00,7,Rain-Snow-Thunderstorm,350
2013-1-13,30,24,19,28,22,18,100,86,75,30.39,30.23,30.05,10,10,2,12,6,,0.00,4,Snow,341
2013-1-14,32,23,14,23,20,14,100,84,64,30.50,30.40,30.36,10,10,10,9,1,,0.00,1,,43
2013-1-15,33,27,21,23,20,16,93,75,48,30.35,30.27,30.20,10,10,10,7,2,,0.00,3,,41
2013-1-16,42,30,17,28,22,18,100,77,42,30.22,30.18,30.12,10,9,7,10,1,,0.00,0,,235
2013-1-17,50,37,24,34,29,25,100,80,40,30.50,30.39,30.22,10,10,7,12,2,16,0.00,0,,345
2013-1-18,59,42,26,32,30,27,100,67,33,30.51,30.36,30.20,10,10,7,18,5,24,0.00,0,,185
2013-1-19,64,48,32,36,34,32,100,56,34,30.23,30.15,30.08,10,10,10,16,10,21,0.00,0,,209
2013-1-20,60,45,30,34,29,19,100,66,34,30.33,30.24,30.14,10,10,10,10,3,,0.00,0,,35
2013-1-21,39,31,23,19,17,14,74,57,38,30.44,30.37,30.32,10,10,10,8,4,,0.00,0,,32
2013-1-22,46,34,21,28,23,18,100,70,46,30.35,30.29,30.22,10,10,10,6,1,,0.00,2,,62
2013-1-23,59,42,24,41,34,25,100,80,51,30.28,30.22,30.15,10,10,7,9,1,,0.00,0,,292
2013-1-24,44,40,35,30,23,19,65,52,42,30.34,30.25,30.12,10,10,10,14,8,22,0.00,8,,65
2013-1-25,46,40,33,36,31,27,100,76,50,30.28,30.20,30.13,10,9,4,8,2,,0.00,3,,344
2013-1-26,62,47,32,32,27,21,100,55,23,30.28,30.22,30.13,10,9,7,12,3,17,0.00,3,,141
2013-1-27,62,54,46,57,49,32,100,79,54,30.13,29.99,29.89,10,10,10,22,11,29,0.00,7,Rain,169
2013-1-28,75,68,62,63,61,57,88,76,57,29.96,29.89,29.80,10,10,10,23,18,32,0.00,7,,184
2013-1-29,73,58,44,63,56,45,100,88,69,29.79,29.61,29.48,10,8,1,25,15,37,0.00,6,Rain-Thunderstorm,169
2013-1-30,44,35,26,45,29,23,100,82,69,30.08,29.85,29.57,10,9,4,23,11,31,0.00,6,Rain,296
2013-1-31,44,32,21,30,23,10,100,75,51,30.49,30.20,30.03,10,10,2,18,5,25,0.00,2,Snow,323